User: anonymous   Login
Location: Newark
(35.2672°N, 80.7344°W)
Time: 16:01:01
(UTC+00:00)
Language:

Transit 2A Rocket - Orbit

View from above orbital plane
View from above orbital plane
View from above satellite
View from above satellite

Ground track
Ground track

The orbit data is extracted from the following two-line orbital elements,

1    47U 60007C   20028.49636610 -.00000064  00000-0  10672-4 0  9992
2    47  66.6651 171.9162 0222585  45.0074 316.8828 14.42069946114809
Epoch (UTC): 28 January 2020 11:54:46
Eccentricity: 0.0222585
inclination: 66.6651°
perigee height: 593 km
apogee height: 910 km
right ascension of ascending node: 171.9162°
argument of perigee: 45.0074°
revolutions per day: 14.42069946
mean anomaly at epoch: 316.8828°
orbit number at epoch: 11480

The dashed part of the orbit path shows where the satellite is in the earth's shadow,  

DLR